COSMOS 2513

Last updated on Thu Nov 21 2024 00:02:43 GMT+0000 (Coordinated Universal Time)

1 41121U 15075A 24325.53962282 -.00000137 00000+0 00000+0 0 9990 2 41121 0.0696 101.1383 0003484 171.6952 61.7422 1.00271546 32787
UTC large
Height (km)
Speed (km/s)
/
Latitude / Longitude
Inclination (degrees)
Orbital Period (minutes)
Azimuth
Elevation
Range (km)
Doppler Factor

Next 0 passes for location: London (51.5072 / 0.1276)

Sorry there are no passes over London.